Simultaneous Nadir Overpasses (SNOs) Predictions

Prediction of SNOs between AQUA and METOP-B Satellite Orbit:

Table of predicted SNOs for the next 14.0 days since TLE Epoch: 3/6/2021
Index Date (AQUA) Time (AQUA) Lat,Lon (AQUA) SZA (AQUA ) Date (METOP-B) Time (METOP-B) Lat,Lon (METOP-B) SZA (METOP-B ) Distance(km) Time Diff (sec)
1 03/08/2021 02:25:56 73.81, 137.79 78.74 03/08/2021 02:25:30 73.81, 137.78 78.75 0.08 26
2 03/08/2021 03:15:23 -73.89, -54.74 101.20 03/08/2021 03:16:11 -73.87, -54.76 101.22 2.39 48
3 03/10/2021 21:10:31 -73.22, 37.85 103.00 03/10/2021 21:09:24 -73.15, 35.35 102.94 80.67 67
4 03/10/2021 22:00:10 73.81,-155.78 77.64 03/10/2021 21:59:50 73.82,-155.78 77.65 0.71 20
5 03/10/2021 22:49:37 -73.89, 11.70 102.30 03/10/2021 22:50:31 -73.87, 11.67 102.32 1.74 54
6 03/13/2021 16:44:50 -73.44, 103.83 103.88 03/13/2021 16:43:40 -73.41, 102.34 103.83 47.56 70
7 03/13/2021 17:34:25 73.83, -89.37 76.54 03/13/2021 17:34:11 73.83, -89.35 76.54 0.65 14
8 03/13/2021 18:23:52 -73.90, 78.11 103.40 03/13/2021 18:24:52 -73.88, 78.10 103.43 2.24 60
9 03/16/2021 12:19:09 -73.67, 169.78 104.75 03/16/2021 12:17:57 -73.61, 169.22 104.77 18.74 72
10 03/16/2021 13:08:40 73.85, -22.98 75.44 03/16/2021 13:08:32 73.84, -22.92 75.43 2.54 8
11 03/16/2021 13:58:06 -73.87, 144.61 104.55 03/16/2021 13:59:13 -73.89, 144.53 104.55 3.02 67
12 03/19/2021 07:53:24 -73.76,-123.97 105.77 03/19/2021 07:52:14 -73.77,-124.02 105.75 1.96 70
13 03/19/2021 08:42:53 73.83, 43.50 74.30 03/19/2021 08:42:52 73.84, 43.50 74.31 0.86 1



Historial Predications of SNOs between AQUA and METOP-B
